KESWICK RESERVOIR (KES)

Elevation: 596' · SACRAMENTO R basin · Operator: US Bureau of Reclamation

Provisional data, subject to change.
Query executed Wednesday at 12:27:01   clock

Select a sensor type for a plot of data.
Note: Reservoir Flows are daily averages.

Earlier

Date RES ELE    STORAGE    RES CHG    OUTFLOW    INFLOW   
 FEET   AF   AF   CFS   CFS  
08/19/2014 583.94 21854 116 7126 7191
08/20/2014 584.14 21976 122 7117 7186
08/21/2014 585.15 22601 625 7143 7464
08/22/2014 584.74 22347 -254 7177 7055
08/23/2014 584.36 22112 -235 7205 7094
08/24/2014 585.23 22651 539 7216 7495
08/25/2014 584.27 22057 -594 7201 6909
08/26/2014 584.44 22161 104 7414 7472
08/27/2014 583.51 21593 -568 7363 7083
08/28/2014 583.66 21684 91 7089 7139
08/29/2014 582.57 21026 -658 7249 6923
08/30/2014 581.98 20674 -352 6970 6800
08/31/2014 582.23 20823 149 6903 6984
09/01/2014 581.49 20387 -436 6900 6685
09/02/2014 583.28 21453 1066 6900 7442
09/03/2014 583.25 21435 -18 6588 6585
09/04/2014 582.61 21050 -385 6600 6412
09/05/2014 582.67 21086 36 6393 6417
09/06/2014 583.48 21574 488 6150 6402
09/07/2014 583.28 21453 -121 6139 6084
09/08/2014 582.82 21176 -277 6148 6014
09/09/2014 582.33 20883 -293 5894 5752
09/10/2014 583.73 21726 843 5901 6331
09/11/2014 584.08 21939 213 5623 5735
09/12/2014 585.00 22507 568 5636 5927
09/13/2014 585.66 22921 414 5690 5905
09/14/2014 583.94 21854 -1067 5562 5029
09/15/2014 584.14 21976 122 5492 5560
09/16/2014 583.39 21520 -456 5499 5275
09/17/2014 -- -- -- -- --

Later | Latest

Warning! This data is preliminary and subject to revision.

Download Data Now Download Data Now | Show KES Map | Plot KES Data | 1 Month KES Data | Real-Time KES Data | KES Info